Weather History for KGLW - November, 2012

Change the Weather History Date:

Thursday, November 22, 2012

  Actual Average (KBWG) Record (KBWG)
Temperature  
Mean Temperature 54 °F 46 °F  
Max Temperature 67 °F 57 °F 78 °F (1934)
Min Temperature 40 °F 36 °F 8 °F (1880)
Degree Days  
Heating Degree Days 12 19  
Month to date heating degree days 334  
Since 1 July heating degree days 597  
Cooling Degree Days 0 0  
Month to date cooling degree days 0  
Year to date cooling degree days 1488  
Growing Degree Days 4 (Base 50)    
Moisture  
Dew Point 41 °F    
Average Humidity 58    
Maximum Humidity 100    
Minimum Humidity 40    
Precipitation  
Precipitation 0.00 in 0.14 in 1.89 in (1940)
Month to date precipitation 2.98  
Year to date precipitation 43.85  
Snow  
Snow 0.00 in 0.00 in 3.80 in (1929)
Month to date snowfall 0.0  
Since 1 July snowfall T  
Since 1 September snowfall T  
Snow Depth -    
Sea Level Pressure  
Sea Level Pressure 30.16 in    
Wind  
Wind Speed 2 mph (SW)    
Max Wind Speed 14 mph    
Max Gust Speed 18 mph    
Visibility 8 miles    
Events      
T = Trace of Precipitation, MM = Missing Value Source: NWS Daily Summary

Daily Weather History Graph

Daily Weather History Graph

Search for Another Location

Airport or City:

Trip Planner

Search our weather history database for the weather conditions in past years. The results will help you decide how hot, cold, wet, or windy it might be!

Date:

Astronomy

Nov. 22, 2012 Rise Set
Actual Time 6:30 AM CST 4:29 PM CST
Civil Twilight 6:02 AM CST 4:57 PM CST
Nautical Twilight 5:30 AM CST 5:29 PM CST
Astronomical Twilight 4:59 AM CST 6:00 PM CST
Moon 1:08 PM CST (11/22) 12:56 AM CST (11/22)
Length of Visible Light 10h 55m
Length of Day
9h 59m
Waxing Gibbous, 71% of the Moon is Illuminated
Nov 22
Waxing Gibbous
Nov 28
Full
Dec 6
Last Quarter
Dec 13
New
Dec 19
First Quarter

Hourly Weather History & Observations

Time (CST) Temp. Dew Point Humidity Pressure Visibility Wind Dir Wind Speed Gust Speed Precip Events Conditions
12:15 AM - - N/A% 30.21 in 4.0 mi Calm Calm - N/A   Haze
12:35 AM - - N/A% 30.20 in 5.0 mi Calm Calm - N/A   Haze
1:15 AM - - N/A% 30.20 in 5.0 mi Calm Calm - N/A   Haze
1:35 AM - - N/A% 30.21 in 5.0 mi Calm Calm - N/A   Haze
1:55 AM - - N/A% 30.21 in 4.0 mi Calm Calm - N/A   Haze
2:15 AM - - N/A% 30.21 in 2.5 mi Calm Calm - N/A   Clear
2:35 AM - - N/A% 30.21 in 2.5 mi Calm Calm - N/A   Clear
2:55 AM - - N/A% 30.21 in 1.8 mi Calm Calm - N/A   Mist
3:15 AM - - N/A% 30.21 in 4.0 mi East 3.5 mph - N/A   Haze
3:35 AM - - N/A% 30.21 in 3.0 mi Calm Calm - N/A   Clear
3:55 AM - - N/A% 30.21 in 2.5 mi Calm Calm - N/A   Clear
4:15 AM - - N/A% 30.21 in 2.0 mi Calm Calm - N/A   Clear
4:55 AM - - N/A% 30.21 in 1.5 mi Calm Calm - N/A   Mist
5:15 AM - - N/A% 30.21 in 3.0 mi Calm Calm - N/A   Clear
5:35 AM - - N/A% 30.21 in 1.2 mi Calm Calm - N/A   Mist
5:55 AM - - N/A% 30.21 in 5.0 mi Calm Calm - N/A   Haze
6:15 AM - - N/A% 30.21 in 3.0 mi Calm Calm - N/A   Clear
6:35 AM - - N/A% 30.21 in 1.0 mi Calm Calm - N/A   Mist
7:15 AM - - N/A% 30.22 in 5.0 mi Calm Calm - N/A   Haze
7:35 AM - - N/A% 30.23 in 4.0 mi Calm Calm - N/A   Haze
7:55 AM - - N/A% 30.23 in 5.0 mi Calm Calm - N/A   Clear
8:15 AM 40.5 °F 40.5 °F 100% 30.23 in 5.0 mi Calm Calm - N/A   Clear
8:55 AM 46.9 °F 41.9 °F 83% 30.23 in 7.0 mi WSW 3.5 mph - N/A   Clear
9:15 AM 49.8 °F 42.3 °F 75% 30.23 in 7.0 mi Calm Calm - N/A   Clear
10:15 AM 57.6 °F 44.2 °F 61% 30.22 in 10.0 mi SW 6.9 mph - N/A   Clear
10:35 AM 59.9 °F 44.1 °F 56% 30.21 in 10.0 mi SSW 6.9 mph - N/A   Clear
10:55 AM 61.9 °F 43.7 °F 51% 30.20 in 10.0 mi SSW 9.2 mph - N/A   Clear
11:15 AM 63.3 °F 44.4 °F 50% 30.18 in 10.0 mi SSW 4.6 mph - N/A   Clear
11:35 AM 64.6 °F 43.9 °F 47% 30.17 in 10.0 mi SW 8.1 mph - N/A   Clear
11:55 AM 65.3 °F 43.9 °F 46% 30.17 in 10.0 mi SW 10.4 mph - N/A   Clear
12:15 PM 65.7 °F 43.3 °F 44% 30.16 in 10.0 mi SSW 10.4 mph 18.4 mph N/A   Clear
12:35 PM 66.4 °F 43.2 °F 43% 30.15 in 10.0 mi SW 8.1 mph 18.4 mph N/A   Clear
12:55 PM 66.9 °F 43.5 °F 43% 30.14 in 10.0 mi SW 10.4 mph - N/A   Clear
1:15 PM 67.3 °F 42.4 °F 40% 30.14 in 10.0 mi SW 12.7 mph 16.1 mph N/A   Clear
1:35 PM 67.1 °F 42.4 °F 41% 30.13 in 10.0 mi SW 11.5 mph - N/A   Clear
1:55 PM 66.9 °F 42.1 °F 40% 30.13 in 10.0 mi WSW 13.8 mph 18.4 mph N/A   Clear
2:15 PM 66.4 °F 41.2 °F 40% 30.13 in 10.0 mi WSW 12.7 mph 18.4 mph N/A   Clear
2:35 PM 65.3 °F 41.0 °F 41% 30.13 in 10.0 mi SW 12.7 mph - N/A   Clear
2:55 PM 65.3 °F 40.8 °F 41% 30.13 in 10.0 mi SW 8.1 mph - N/A   Clear
3:15 PM 64.6 °F 41.4 °F 43% 30.13 in 10.0 mi SSW 9.2 mph - N/A   Clear
3:35 PM 63.9 °F 41.0 °F 43% 30.14 in 10.0 mi SW 8.1 mph - N/A   Clear
3:55 PM 62.2 °F 41.5 °F 47% 30.13 in 10.0 mi SW 5.8 mph - N/A   Clear
4:15 PM 61.0 °F 41.9 °F 49% 30.13 in 10.0 mi SSW 3.5 mph - N/A   Clear
4:35 PM 58.3 °F 41.9 °F 54% 30.13 in 10.0 mi Calm Calm - N/A   Clear
4:55 PM 57.2 °F 41.9 °F 57% 30.12 in 10.0 mi Calm Calm - N/A   Clear
5:15 PM 54.5 °F 41.4 °F 61% 30.11 in 10.0 mi Calm Calm - N/A   Clear
5:35 PM 53.8 °F 41.5 °F 63% 30.11 in 10.0 mi Calm Calm - N/A   Clear
5:55 PM 54.0 °F 41.9 °F 64% 30.11 in 10.0 mi Calm Calm - N/A   Clear
6:15 PM 53.6 °F 42.1 °F 65% 30.11 in 10.0 mi Calm Calm - N/A   Clear
6:35 PM 53.4 °F 42.3 °F 66% 30.12 in 10.0 mi Calm Calm - N/A   Clear
6:55 PM 53.1 °F 42.3 °F 67% 30.12 in 10.0 mi Calm Calm - N/A   Clear
7:55 PM 49.3 °F 41.0 °F 73% 30.10 in 10.0 mi South 3.5 mph - N/A   Clear
8:15 PM 50.7 °F 40.1 °F 67% 30.11 in 10.0 mi SW 3.5 mph - N/A   Clear
8:35 PM 50.4 °F 40.5 °F 69% 30.11 in 10.0 mi SW 3.5 mph - N/A   Clear
8:55 PM 50.5 °F 40.3 °F 68% 30.11 in 10.0 mi SW 3.5 mph - N/A   Clear
9:15 PM 50.9 °F 40.1 °F 67% 30.11 in 10.0 mi SSW 3.5 mph - N/A   Clear
9:35 PM 51.3 °F 39.7 °F 65% 30.11 in 10.0 mi SSW 4.6 mph - N/A   Clear
9:55 PM 51.6 °F 39.4 °F 63% 30.11 in 10.0 mi SW 4.6 mph - N/A   Clear
10:15 PM 49.8 °F 39.2 °F 67% 30.11 in 10.0 mi SW 4.6 mph - N/A   Clear
10:35 PM 49.6 °F 38.8 °F 66% 30.11 in 10.0 mi SSW 3.5 mph - N/A   Clear
10:55 PM 49.5 °F 38.5 °F 66% 30.11 in 10.0 mi SSW 3.5 mph - N/A   Clear
11:15 PM 48.4 °F 37.9 °F 67% 30.12 in 10.0 mi WSW 3.5 mph - N/A   Clear
11:35 PM 48.6 °F 37.9 °F 67% 30.12 in 10.0 mi Calm Calm - N/A   Clear
11:55 PM 48.6 °F 37.8 °F 66% 30.12 in 10.0 mi Calm Calm - N/A   Clear